RH
84 80 79 76 77 76 76 73 74 76 78 85 86 85 85 83 89 97 96 76 90 97 88 70 60 73 82 88 88 69 77 66 63 58 51 47 46 46 47 47 40 39 50 51 64 69 67 44 51 56 63 82 75 87
85 80 80 78 79 74 73 70 73 75 73 83 86 86 86 89 89 93 100 83 80 99 87 74 68 63 64 66 80 81 78 76 70 72 72 65 49 56 59 49 46 43 49 58 55 61 63 63 55 70 72 83 81 82
87 83 82 82 83 82 80 79 79 80 78 77 83 87 86 90 90 92 98 93 94 99 91 82 76 57 55 52 46 88 86 63 57 57 78 66 54 60 57 52 51 62 61 65 53 64 59 84 75 74 74 84 86 83
87 83 83 83 82 80 78 80 79 79 80 79 84 87 87 90 90 90 99 96 97 97 98 87 53 60 48 52 46 53 55 65 62 59 60 81 65 55 56 52 61 70 57 63 61 78 81 79 84 85 83 81 86 89
89 84 83 84 83 80 78 80 82 82 81 80 83 87 86 89 91 96 98 98 87 96 96 95 72 63 60 54 47 44 50 70 64 62 60 60 63 55 61 64 62 58 45 50 56 58 74 87 82 80 79 78 75 85
89 88 87 86 84 82 79 80 81 85 82 82 84 89 89 90 94 100 99 88 82 93 98 92 83 72 57 44 44 47 46 72 71 65 63 55 55 59 68 69 49 58 55 54 56 62 65 76 79 81 81 80 80 86
85 87 87 85 82 80 79 82 84 87 84 86 88 91 90 91 99 98 96 92 94 90 98 96 96 67 52 51 48 50 45 55 94 64 66 50 50 70 69 65 48 40 54 52 61 60 73 78 71 77 69 71 82 84
85 85 84 83 82 78 80 82 87 86 84 86 90 89 89 91 96 98 89 84 85 88 92 97 85 71 64 55 59 54 54 58 62 84 57 53 58 78 75 57 54 46 48 46 60 57 55 63 80 75 71 76 74 74
87 87 86 84 82 80 82 84 89 88 88 90 87 86 93 99 100 90 82 85 80 88 98 95 83 92 79 75 80 57 57 64 58 66 52 59 70 81 62 61 53 50 51 54 48 55 59 67 76 74 73 79 72 70
86 87 87 85 79 79 85 86 91 88 92 87 87 99 99 89 82 83 86 98 100 99 99 98 92 90 72 79 95 93 80 75 70 64 53 60 65 56 46 59 54 49 47 43 48 58 68 64 69 71 68 65 59 62
86 83 82 78 78 84 88 92 92 92 90 91 93 94 98 88 94 93 98 99 93 96 94 98 85 83 82 90 96 98 96 97 86 81 66 76 56 40 45 38 48 48 45 41 40 40 45 46 56 62 57 55 57 59
90 86 76 83 83 88 94 91 92 95 96 97 98 94 97 99 99 98 94 94 97 86 85 89 84 74 93 95 95 96 95 95 93 92 88 81 68 40 43 46 42 44 38 37 42 40 44 46 46 51 55 56 56 58
91 85 80 86 88 94 90 92 94 89 89 96 100 98 99 94 100 92 88 91 94 92 91 94 86 91 92 94 97 97 94 95 91 95 88 84 69 59 60 48 42 45 39 43 42 42 43 43 50 52 60 57 59 63
83 85 86 87 92 92 93 94 93 94 93 99 97 100 96 96 93 81 89 96 92 93 95 95 94 92 93 90 95 90 87 91 93 92 86 86 82 88 80 72 55 55 51 48 47 44 45 47 57 51 55 63 64 66
92 90 90 92 93 92 94 94 93 94 99 98 97 98 93 78 74 77 95 95 92 96 97 96 95 90 95 90 96 89 88 90 80 81 89 87 84 90 95 78 61 54 58 55 50 48 48 50 58 58 68 59 62 66
90 92 93 85 92 93 94 96 96 98 98 99 99 95 86 93 89 88 90 96 93 98 98 99 90 86 84 85 84 81 72 72 70 77 88 94 91 91 85 80 84 76 57 56 55 52 49 52 56 64 74 63 65 68
91 95 89 88 92 96 93 96 99 98 97 93 94 89 82 83 90 89 93 91 95 96 88 80 82 80 86 86 76 70 86 94 97 83 89 88 86 88 88 74 75 83 84 75 68 69 66 56 60 72 69 68 65 65
97 97 90 94 96 97 99 98 98 95 94 84 92 88 82 91 89 92 93 93 95 90 87 82 89 88 88 79 84 90 88 94 97 95 92 81 85 82 75 70 80 80 83 79 83 81 75 70 72 65 59 68 68 70
98 98 94 94 96 98 96 96 97 96 84 89 81 74 78 65 72 67 74 88 94 91 92 88 88 93 92 92 88 90 90 90 90 92 92 88 89 87 85 88 91 90 85 82 81 84 84 79 74 67 63 66 69 73
94 93 94 93 95 99 96 97 87 98 95 90 83 76 74 74 71 70 70 94 95 94 92 91 87 80 86 92 91 86 86 90 89 84 88 92 90 84 83 85 82 83 83 78 82 88 86 81 86 77 73 61 61 74
95 96 94 96 99 99 98 96 98 97 91 91 85 88 85 80 81 80 87 96 94 94 94 82 76 70 68 76 83 80 84 87 94 94 95 95 94 95 96 90 90 94 92 94 92 74 90 90 96 96 92 73 59 61
98 95 98 98 99 94 98 91 94 93 92 88 83 86 90 91 92 91 94 91 93 82 78 74 66 75 73 73 73 79 92 93 96 98 97 95 94 97 94 93 93 92 93 94 96 94 96 97 98 96 96 98 98 96
98 98 99 97 98 97 95 83 92 88 90 87 86 84 86 90 92 93 92 88 83 76 74 73 71 68 77 72 82 90 90 88 95 94 95 94 95 96 94 94 93 97 98 97 98 96 94 99 99 95 94 94 94 98
95 98 96 95 93 96 84 84 79 78 85 86 84 80 86 94 91 92 92 92 94 94 93 84 87 89 91 84 94 94 95 93 94 96 96 96 96 95 90 95 98 99 99 99 97 99 96 95 99 95 91 91 95 95
100 95 99 100 94 95 87 73 71 76 78 75 76 89 96 97 96 92 95 95 96 96 94 95 93 94 94 96 97 98 94 96 95 95 96 96 98 97 97 97 98 98 99 95 92 95 96 96 97 96 92 90 93 94
100 90 99 88 83 86 78 81 81 86 84 77 83 93 96 94 88 94 94 94 96 93 96 95 96 95 97 97 96 96 98 99 99 98 95 97 95 91 98 98 99 98 95 98 97 94 92 93 92 90 91 88 97 87
97 86 89 84 86 82 88 85 82 87 84 87 95 91 90 93 91 89 92 94 94 94 93 86 90 90 96 97 97 98 98 97 97 92 90 94 97 97 96 96 91 94 94 90 92 92 92 88 88 89 93 96 95 93
83 81 89 85 86 81 83 82 84 90 92 95 96 91 90 89 81 76 75 70 77 88 83 88 96 93 92 92 95 95 90 93 90 94 96 96 96 98 96 96 95 99 97 95 90 90 92 92 91 89 90 95 95 92
92 89 88 93 86 86 84 88 91 95 96 98 92 82 73 73 73 67 62 60 64 85 93 87 83 91 91 91 90 72 51 43 56 66 73 71 68 72 84 93 95 96 95 95 99 96 82 89 89 88 90 94 94 94
87 90 93 92 92 91 92 96 97 95 98 96 77 66 67 65 57 55 55 62 73 85 86 72 68 72 82 75 52 38 41 48 48 57 61 57 55 60 58 58 61 78 88 86 87 88 98 85 90 88 92 94 94 94
96 98 95 94 91 84 87 90 92 94 89 77 67 68 59 58 54 50 54 53 54 51 54 64 63 64 40 43 46 50 54 54 53 50 50 49 54 56 50 46 38 48 72 67 70 76 82 85 84 83 80 84 83 87
94 93 88 80 83 82 82 84 83 88 85 80 77 65 68 66 65 61 59 58 52 44 56 48 47 49 45 49 47 48 60 56 60 59 57 58 59 57 57 54 44 43 44 47 48 53 55 55 57 58 64 64 67 69
65 63 60 66 79 81 84 84 85 82 81 81 78 64 60 58 53 53 50 54 51 44 43 45 43 40 39 43 47 50 58 59 72 81 82 82 80 72 60 54 49 44 48 52 58 62 65 67 69 70 74 69 66 68
Wind_Speed
12 10 9 8 8 9 9 10 11 11 11 12 9 8 9 8 8 3 5 4 2 3 8 8 7 4 4 3 3 5 7 4 6 5 3 2 2 3 4 3 8 7 6 3 4 3 4 6 2 4 6 2 6 4
13 10 10 9 9 8 8 9 9 9 10 11 12 8 8 7 8 6 3 3 1 4 7 9 15 17 17 15 3 1 3 1 4 2 5 5 2 3 4 3 3 2 6 6 7 8 4 2 2 2 7 6 6 5
13 10 10 10 10 10 10 10 10 10 8 10 12 9 8 7 8 6 3 3 2 3 7 4 8 8 11 21 16 3 2 4 3 2 2 4 4 2 3 1 3 1 3 4 4 3 5 6 6 3 4 7 7 6
13 11 11 10 9 8 9 10 10 10 8 9 11 12 6 7 9 8 2 2 2 3 4 9 5 9 5 8 18 20 10 4 2 2 2 3 5 1 3 4 4 4 3 6 3 9 10 5 5 8 9 7 6 7
12 11 10 10 10 9 10 11 10 11 8 9 10 12 6 7 9 6 5 4 5 2 4 8 16 13 9 11 17 17 14 3 1 1 3 3 3 3 3 3 1 4 5 5 6 9 6 6 9 9 5 2 4 6
10 9 9 10 10 9 10 11 13 11 8 8 10 10 6 7 6 2 3 2 4 3 3 6 6 8 4 10 16 17 10 4 2 0 4 4 2 2 1 2 4 5 3 6 4 5 5 12 7 3 5 6 2 5
11 10 10 11 9 9 10 12 14 13 6 8 9 7 7 7 2 3 2 0 4 1 2 5 6 7 3 3 3 3 6 4 5 2 4 4 4 3 1 3 5 4 2 2 10 15 7 4 7 7 8 8 6 4
11 11 10 11 10 9 9 12 14 10 8 9 8 6 7 7 6 5 5 12 4 1 1 4 6 5 5 1 3 3 5 3 4 4 4 4 2 1 3 7 2 6 1 5 8 6 10 10 6 8 10 8 8 12
12 12 11 10 9 8 9 12 13 8 8 6 5 5 2 2 3 3 4 9 2 1 2 3 3 4 4 4 3 3 4 3 3 7 11 4 3 5 7 6 4 3 2 2 8 6 15 17 12 11 11 7 7 11
12 11 11 10 8 9 11 12 12 8 6 3 1 1 3 4 7 7 1 2 2 2 3 4 3 5 3 3 3 3 3 2 4 5 4 5 6 5 7 6 6 5 5 6 3 6 12 14 15 14 16 15 16 16
13 11 9 8 10 11 13 13 9 6 1 1 2 3 2 3 0 2 3 4 3 4 5 5 7 4 3 3 3 1 3 4 1 5 6 4 7 11 8 13 7 7 7 7 7 8 14 18 18 15 14 15 14 15
12 10 9 9 8 11 10 6 6 3 1 2 2 4 2 2 2 3 4 4 5 5 4 3 5 6 3 3 3 2 2 2 3 5 2 4 4 8 8 10 9 8 7 8 5 6 6 5 11 18 17 16 16 16
12 10 8 7 7 8 4 6 8 3 5 1 2 2 2 3 3 5 4 4 3 2 3 4 4 4 3 4 3 3 3 4 3 3 4 5 3 2 3 7 11 8 8 7 7 5 5 7 9 9 15 14 15 14
4 1 4 6 5 3 3 5 5 2 1 1 2 4 4 4 5 4 2 3 3 3 4 3 2 4 2 3 2 3 5 2 4 4 6 4 4 3 6 9 7 10 10 9 10 9 7 3 8 9 12 14 15 15
3 2 2 3 6 5 5 6 6 1 1 2 2 4 5 5 3 3 4 3 2 3 3 3 1 3 2 1 3 1 1 4 5 5 4 5 2 2 6 3 6 7 7 7 7 7 7 5 7 8 8 15 16 15
4 4 4 7 9 6 6 6 2 1 2 3 4 4 5 3 5 3 2 2 1 2 3 3 3 2 3 3 3 6 3 4 3 4 2 3 0 3 2 3 6 6 2 6 6 6 7 6 7 9 8 14 16 18
2 2 3 6 8 8 10 2 2 3 3 4 5 4 6 5 5 5 2 3 3 2 3 2 1 3 2 1 4 2 2 4 4 2 0 2 2 4 7 4 5 6 7 6 1 2 6 7 7 8 12 12 15 18
2 2 3 8 7 6 1 1 2 4 7 6 5 4 4 5 4 3 4 1 2 1 1 0 1 1 3 3 2 2 2 4 3 3 2 2 2 5 5 5 5 5 6 5 4 4 3 1 6 9 14 14 13 13
2 3 1 10 3 2 2 3 2 4 7 4 6 7 4 4 5 6 4 4 3 2 2 2 1 3 4 3 3 4 3 3 3 4 4 2 2 5 5 4 5 6 6 5 5 3 4 4 5 4 8 11 12 10
7 6 4 10 6 1 3 3 3 4 5 5 3 4 4 4 4 2 2 3 4 3 0 3 5 4 2 3 4 5 3 2 2 1 4 5 3 4 4 4 4 5 5 7 6 5 3 4 2 5 7 11 10 11
1 3 6 6 2 2 3 3 4 5 4 3 3 1 4 2 2 3 2 4 3 3 4 5 5 5 5 5 4 4 4 2 4 2 2 3 5 2 4 5 5 2 2 4 5 9 5 2 3 4 3 5 10 11
1 2 3 2 2 3 4 4 4 4 3 4 3 3 3 2 3 3 3 2 4 5 5 4 4 4 4 5 5 3 4 4 5 3 3 2 3 3 4 3 3 3 2 3 4 4 3 3 4 7 9 7 10 8
1 1 1 3 3 3 7 2 4 4 3 4 2 2 1 2 3 2 1 4 5 4 5 5 6 6 7 4 2 3 3 1 1 1 3 3 3 1 3 2 2 2 3 3 2 1 1 4 2 8 8 10 8 3
1 1 2 3 4 5 4 4 4 3 3 2 2 2 1 3 2 1 3 2 3 3 3 3 2 2 2 2 3 1 1 2 1 3 3 1 2 3 3 4 1 2 4 4 4 5 3 0 1 2 4 5 8 2
1 3 3 5 3 4 5 3 3 3 3 4 3 4 3 3 3 2 1 3 3 3 3 4 3 3 1 2 3 3 2 2 2 2 4 4 4 3 3 2 2 3 5 4 4 3 3 2 3 1 5 7 9 10
4 5 6 4 3 4 3 3 3 4 4 3 2 0 1 2 4 2 1 2 2 2 2 3 1 2 1 1 2 3 2 3 3 3 2 2 3 4 4 4 2 4 2 1 3 3 4 2 6 4 4 2 4 4
3 5 5 5 3 3 4 3 4 4 5 2 2 2 1 3 2 1 2 3 3 3 2 3 3 4 3 1 3 4 3 4 4 5 3 2 2 2 3 1 2 3 3 3 3 2 2 4 4 4 3 3 3 4
4 4 4 2 3 3 3 3 2 3 1 2 3 1 3 1 0 3 4 3 4 3 3 4 2 2 4 2 2 4 5 5 3 4 5 5 4 4 4 2 1 1 4 3 1 3 4 5 5 5 6 6 4 1
4 3 2 5 4 4 2 0 2 2 2 2 2 1 1 1 2 1 3 3 2 6 4 3 2 3 3 3 3 3 5 6 7 7 9 4 4 4 1 2 3 2 3 4 8 7 7 6 6 6 6 5 4 3
3 2 1 3 2 1 2 2 3 3 3 4 3 3 3 3 2 2 3 4 5 5 3 2 3 3 3 4 5 8 7 6 7 7 6 5 4 5 5 5 2 3 4 5 5 2 5 4 3 3 4 3 3 3
1 2 2 3 4 4 5 4 5 5 4 1 2 2 2 1 4 4 4 2 3 4 4 3 2 2 6 5 5 6 5 6 7 8 6 4 5 5 6 7 7 4 3 5 2 1 1 0 1 3 4 4 4 3
5 6 4 3 1 1 2 1 0 4 5 4 4 2 3 4 3 4 3 4 5 5 5 6 6 4 5 4 5 5 8 4 5 5 8 5 5 5 6 6 9 10 12 12 13 12 11 9 6 5 2 5 4 6
5 5 2 2 2 2 2 3 3 2 4 2 2 2 2 3 2 3 3 1 4 4 4 3 3 5 7 7 7 6 7 6 9 11 11 12 12 10 7 7 7 9 12 11 10 11 13 12 10 13 12 10 8 7
Wind_Direction
299 294 295 304 304 311 314 311 313 314 309 316 293 297 307 315 323 336 272 276 224 257 280 258 253 253 282 233 184 309 351 352 313 50 39 273 131 188 95 165 156 156 133 174 88 103 247 190 118 193 197 39 174 212
299 298 291 285 278 288 295 300 298 304 305 303 313 286 296 296 307 311 275 290 326 238 266 303 271 250 231 244 316 210 226 250 266 352 31 315 12 59 144 183 350 84 168 177 157 207 229 48 155 291 162 155 196 193
297 294 285 284 287 291 297 302 302 285 298 299 297 285 285 297 294 296 260 285 320 272 283 259 254 261 215 219 210 244 245 227 346 354 34 287 322 150 122 256 91 349 132 108 91 238 111 115 98 97 148 162 157 171
293 285 287 290 292 295 300 301 307 304 281 290 290 301 266 290 291 296 232 254 309 280 275 283 314 285 295 211 201 212 229 4 51 38 221 208 261 29 178 164 120 199 12 137 89 84 78 30 135 166 166 152 159 138
298 297 292 293 291 292 298 301 303 299 280 289 288 298 283 293 295 287 251 228 216 237 291 287 303 273 253 200 204 211 219 183 184 302 252 221 272 33 311 83 144 174 185 148 210 179 140 193 192 195 159 192 174 156
300 285 289 295 292 290 299 302 303 300 282 284 286 299 293 289 314 293 311 71 201 187 285 291 288 289 303 194 193 197 205 147 165 81 296 270 282 80 49 169 232 180 158 185 197 134 140 168 176 211 154 152 112 94
294 290 287 288 281 284 300 303 303 305 285 279 287 280 286 292 263 227 242 53 3 160 265 289 292 267 252 130 113 126 175 165 113 268 257 260 302 56 238 188 258 51 254 136 126 112 75 179 177 178 122 119 115 137
290 290 291 289 290 280 292 302 306 306 288 283 275 272 283 297 273 286 246 224 184 223 245 279 277 296 8 96 150 148 155 147 137 183 276 242 303 86 255 232 86 56 329 160 192 191 150 152 141 145 134 143 142 138
279 275 277 285 282 286 295 300 308 293 287 284 276 290 313 206 233 240 343 140 147 182 277 267 285 271 349 354 20 17 135 157 196 186 224 178 221 210 230 219 59 37 6 242 227 139 137 149 175 162 158 166 156 162
269 271 269 266 290 294 289 294 297 287 281 302 312 201 241 209 164 137 87 131 187 213 224 245 262 272 36 31 15 21 8 216 184 227 152 178 228 232 241 225 233 259 260 330 238 130 159 162 176 180 183 183 180 164
262 261 261 265 277 282 283 281 269 255 342 240 226 240 338 114 249 212 223 200 169 229 216 232 203 219 301 122 116 204 231 323 276 262 152 223 243 216 234 247 227 221 222 257 264 171 172 167 175 171 178 180 174 166
284 262 244 251 271 284 284 220 202 167 239 286 269 271 317 228 223 254 217 185 205 237 199 209 205 182 228 119 97 2 67 354 262 331 247 243 260 215 187 230 243 229 216 246 273 141 190 196 169 175 176 175 179 174
265 246 230 241 278 292 221 185 193 277 342 269 236 256 218 211 221 225 226 223 227 319 4 11 327 144 40 55 78 129 163 211 320 268 256 240 259 240 277 242 225 210 217 214 252 262 172 206 203 164 171 177 170 169
13 187 231 253 234 248 198 190 188 199 294 265 246 278 223 218 235 199 316 302 296 311 337 282 263 54 135 96 146 156 224 124 239 225 238 240 245 289 291 271 214 201 200 211 219 229 231 221 210 191 169 163 162 168
349 318 286 258 214 216 208 180 178 157 278 259 233 244 232 250 286 286 187 263 298 291 333 332 300 131 82 169 202 238 230 241 222 241 241 240 238 281 313 0 194 200 187 198 206 209 224 209 202 201 166 169 169 163
310 299 236 232 191 196 188 141 128 161 260 245 234 258 256 294 287 307 246 199 202 311 20 347 301 19 220 190 156 219 224 223 245 221 264 354 2 257 281 57 39 25 243 193 204 210 220 208 195 202 171 172 166 164
297 256 350 163 157 153 145 114 158 202 241 239 243 225 259 290 256 258 241 230 192 145 211 159 98 229 296 260 237 194 11 272 293 356 61 247 208 219 259 7 23 31 354 337 58 306 236 219 185 150 172 187 175 175
259 328 183 151 141 127 134 239 231 229 239 237 246 241 212 222 243 251 246 232 117 248 48 264 208 305 237 261 330 280 310 311 296 303 280 291 334 318 341 24 307 359 299 287 308 305 342 124 170 182 181 176 177 177
322 355 168 172 169 177 167 201 209 266 244 236 243 248 239 248 231 220 210 173 178 176 61 352 263 227 239 223 209 262 223 217 261 312 314 302 191 205 232 247 267 280 288 301 305 290 276 228 221 179 185 169 178 178
278 261 248 201 221 182 230 216 201 248 264 236 243 233 222 224 230 214 209 141 137 113 221 227 220 236 204 257 218 218 253 235 145 333 301 315 316 317 289 296 298 319 312 319 315 279 284 292 274 181 179 192 176 181
223 201 147 168 193 260 271 268 226 232 261 264 271 189 262 294 272 236 225 154 111 189 230 225 240 254 254 253 224 200 253 214 219 228 248 296 306 319 323 313 298 307 337 336 331 322 294 11 11 41 359 224 192 183
230 68 112 196 218 243 255 230 242 284 269 247 292 197 245 257 254 229 151 121 208 217 208 217 237 250 268 264 254 222 178 126 131 186 204 119 38 342 325 337 50 357 327 9 354 298 331 289 114 85 66 51 28 356
249 158 164 185 233 232 259 233 232 243 245 259 326 268 264 262 235 97 177 213 228 228 216 222 234 236 236 270 239 206 232 75 57 257 230 147 139 343 316 41 175 138 39 354 346 33 189 238 199 121 119 103 80 30
240 229 209 217 201 260 266 247 219 251 239 249 241 253 103 304 296 178 242 254 277 313 336 299 351 351 333 273 256 59 65 84 265 238 277 165 76 18 324 47 72 202 186 186 67 70 52 117 190 120 124 96 77 25
214 244 194 250 225 236 244 240 226 251 256 215 169 240 201 216 240 213 183 302 326 315 312 324 0 24 359 348 23 22 33 39 55 217 248 171 140 93 40 2 310 291 304 15 69 37 214 114 138 166 154 154 158 199
227 213 195 238 237 215 279 290 3 348 321 260 243 295 224 261 32 332 215 234 255 271 311 12 9 107 38 47 71 36 45 40 295 251 272 146 131 132 146 188 206 282 263 337 314 101 131 145 116 96 8 17 128 156
247 243 209 216 238 280 278 252 249 213 234 271 256 223 178 54 261 209 244 235 238 245 190 103 117 83 95 95 269 252 196 143 215 249 289 96 60 88 180 199 292 249 153 60 31 37 76 109 111 116 120 3 23 86
243 261 233 208 213 221 259 256 250 285 315 263 284 296 126 241 155 229 225 244 208 210 83 78 141 158 127 182 283 335 354 345 8 69 1 337 318 311 293 248 198 31 28 47 212 206 161 148 155 160 158 176 199 203
240 236 239 258 238 235 247 307 321 291 277 270 257 58 88 314 232 262 281 289 12 100 102 98 44 22 22 338 297 316 35 31 40 81 95 54 35 352 262 169 164 170 75 63 29 44 99 101 105 109 126 141 161 155
244 154 268 258 262 277 236 151 245 260 255 259 284 26 29 326 316 344 17 54 101 126 172 142 127 114 87 45 45 46 20 22 38 76 70 56 1 327 359 354 317 226 175 145 114 82 31 83 81 85 103 105 122 143
289 209 242 240 245 222 211 189 212 222 246 69 67 94 83 335 10 4 33 34 97 106 117 138 112 51 91 92 97 75 33 357 36 47 55 47 27 21 17 9 5 22 91 50 38 92 124 232 184 162 150 167 171 167
187 215 215 203 140 207 112 74 70 21 360 30 2 35 20 49 33 323 319 48 50 46 56 105 115 128 125 120 100 97 113 87 49 33 32 36 36 18 25 31 39 44 55 46 51 50 38 38 19 351 235 106 94 81
180 199 232 126 111 90 9 79 54 36 1 355 333 12 40 100 46 280 323 133 149 155 128 138 137 140 145 130 133 119 102 98 91 66 53 57 56 45 41 45 47 55 58 57 49 41 33 32 35 31 18 16 23 31